TimeEDT,TemperatureF,Dew PointF,Humidity,Sea Level PressureIn,VisibilityMPH,Wind Direction,Wind SpeedMPH,Gust SpeedMPH,PrecipitationIn,Events,Conditions,WindDirDegrees,DateUTC
12:50 AM,55.4,55.4,100,29.96,9.0,NW,3.5,-,N/A,Fog,Patches of Fog,310,2013-05-09 04:50:00
12:54 AM,55.9,55.9,100,29.96,9.0,NW,3.5,-,N/A,Fog,Patches of Fog,320,2013-05-09 04:54:00
1:05 AM,57.2,55.4,94,29.95,9.0,Calm,Calm,-,N/A,Fog,Patches of Fog,0,2013-05-09 05:05:00
1:21 AM,55.4,55.4,100,29.95,7.0,Calm,Calm,-,N/A,Fog,Patches of Fog,0,2013-05-09 05:21:00
1:51 AM,55.4,53.6,94,29.94,8.0,Calm,Calm,-,N/A,Fog,Shallow Fog,0,2013-05-09 05:51:00
1:54 AM,54.0,54.0,100,29.94,8.0,Calm,Calm,-,N/A,Fog,Shallow Fog,0,2013-05-09 05:54:00
2:17 AM,53.6,53.6,100,29.94,2.0,West,3.5,-,N/A,,Mostly Cloudy,270,2013-05-09 06:17:00
2:21 AM,53.6,53.6,100,29.93,2.5,West,3.5,-,N/A,,Scattered Clouds,270,2013-05-09 06:21:00
2:30 AM,53.6,53.6,100,29.93,2.0,West,3.5,-,N/A,,Mostly Cloudy,270,2013-05-09 06:30:00
2:38 AM,55.4,55.4,100,29.93,3.0,Calm,Calm,-,N/A,,Mostly Cloudy,0,2013-05-09 06:38:00
2:51 AM,55.4,53.6,94,29.93,4.0,Calm,Calm,-,N/A,,Scattered Clouds,0,2013-05-09 06:51:00
2:54 AM,54.0,54.0,100,29.93,4.0,Calm,Calm,-,N/A,,Scattered Clouds,0,2013-05-09 06:54:00
3:54 AM,51.1,51.1,100,29.92,3.0,West,3.5,-,N/A,Fog,Patches of Fog,270,2013-05-09 07:54:00
4:07 AM,51.8,51.8,100,29.93,2.0,Calm,Calm,-,N/A,Fog,Patches of Fog,0,2013-05-09 08:07:00
4:12 AM,51.8,51.8,100,29.93,1.0,West,3.5,-,N/A,Fog,Patches of Fog,270,2013-05-09 08:12:00
4:19 AM,51.8,51.8,100,29.93,0.5,WNW,4.6,-,N/A,Fog,Fog,290,2013-05-09 08:19:00
4:36 AM,51.8,51.8,100,29.92,0.5,West,5.8,-,N/A,Fog,Fog,280,2013-05-09 08:36:00
4:45 AM,51.8,51.8,100,29.93,0.2,West,3.5,-,N/A,Fog,Fog,270,2013-05-09 08:45:00
4:54 AM,52.0,52.0,100,29.92,0.2,Calm,Calm,-,N/A,Fog,Fog,0,2013-05-09 08:54:00
5:40 AM,53.6,53.6,100,29.92,0.2,Calm,Calm,-,N/A,Fog,Fog,0,2013-05-09 09:40:00
5:54 AM,53.1,53.1,100,29.93,0.5,West,3.5,-,N/A,Fog,Fog,260,2013-05-09 09:54:00
6:16 AM,53.6,53.6,100,29.94,1.0,West,3.5,-,N/A,,Overcast,270,2013-05-09 10:16:00
6:19 AM,53.6,53.6,100,29.94,2.0,Calm,Calm,-,N/A,,Overcast,0,2013-05-09 10:19:00
6:22 AM,53.6,53.6,100,29.94,2.0,Calm,Calm,-,N/A,,Overcast,0,2013-05-09 10:22:00
6:54 AM,54.0,54.0,100,29.95,2.5,Calm,Calm,-,N/A,,Overcast,0,2013-05-09 10:54:00
7:28 AM,53.6,53.6,100,29.96,3.0,West,6.9,-,N/A,,Mostly Cloudy,260,2013-05-09 11:28:00
7:54 AM,55.0,53.1,93,29.96,4.0,West,5.8,-,N/A,,Overcast,260,2013-05-09 11:54:00
8:54 AM,55.9,54.0,93,29.97,6.0,WSW,3.5,-,N/A,,Mostly Cloudy,250,2013-05-09 12:54:00
9:36 AM,57.2,55.4,94,29.98,8.0,WSW,5.8,-,N/A,,Mostly Cloudy,250,2013-05-09 13:36:00
9:54 AM,59.0,55.0,87,29.99,8.0,WSW,5.8,-,N/A,,Mostly Cloudy,240,2013-05-09 13:54:00
10:12 AM,60.8,55.4,82,29.98,9.0,WSW,6.9,-,N/A,,Mostly Cloudy,240,2013-05-09 14:12:00
10:54 AM,62.1,55.0,78,29.99,10.0,Variable,4.6,-,N/A,,Mostly Cloudy,0,2013-05-09 14:54:00
11:54 AM,66.0,55.0,68,29.97,10.0,WSW,8.1,-,N/A,,Mostly Cloudy,250,2013-05-09 15:54:00
12:54 PM,69.8,55.4,60,29.95,10.0,SW,9.2,23.0,N/A,,Mostly Cloudy,220,2013-05-09 16:54:00
1:54 PM,71.1,55.0,57,29.94,10.0,West,9.2,-,N/A,,Mostly Cloudy,260,2013-05-09 17:54:00
2:54 PM,73.0,54.0,51,29.93,10.0,WNW,8.1,16.1,N/A,,Mostly Cloudy,300,2013-05-09 18:54:00
3:54 PM,73.0,53.1,49,29.93,10.0,West,8.1,-,N/A,,Mostly Cloudy,260,2013-05-09 19:54:00
4:54 PM,73.0,54.0,51,29.93,10.0,West,8.1,-,N/A,,Mostly Cloudy,270,2013-05-09 20:54:00
5:54 PM,73.0,55.0,53,29.93,10.0,West,9.2,-,N/A,,Mostly Cloudy,260,2013-05-09 21:54:00
6:54 PM,72.0,55.0,55,29.94,10.0,WSW,8.1,-,N/A,,Mostly Cloudy,250,2013-05-09 22:54:00
7:54 PM,70.0,57.0,63,29.96,10.0,Calm,Calm,-,N/A,,Mostly Cloudy,0,2013-05-09 23:54:00
8:54 PM,66.9,57.9,73,29.96,10.0,SW,3.5,-,N/A,,Scattered Clouds,220,2013-05-10 00:54:00
9:54 PM,64.0,57.9,80,29.99,10.0,Calm,Calm,-,N/A,,Scattered Clouds,0,2013-05-10 01:54:00
10:54 PM,62.1,57.9,86,29.99,10.0,Calm,Calm,-,N/A,,Partly Cloudy,0,2013-05-10 02:54:00
11:54 PM,59.0,57.0,93,29.99,10.0,Calm,Calm,-,N/A,,Partly Cloudy,0,2013-05-10 03:54:00